Year,Month,Day,Hour,Minute,Value (Times are PST for temperature in C)
2006,06,24,00,00,13.10
2006,06,24,00,01,13.00
2006,06,24,00,02,13.00
2006,06,24,00,03,13.00
2006,06,24,00,04,13.00
2006,06,24,00,05,13.00
2006,06,24,00,06,12.90
2006,06,24,00,07,12.90
2006,06,24,00,08,12.90
2006,06,24,00,09,12.90
2006,06,24,00,10,12.80
2006,06,24,00,11,12.80
2006,06,24,00,12,12.80
2006,06,24,00,13,12.80
2006,06,24,00,14,12.80
2006,06,24,00,15,12.80
2006,06,24,00,16,12.80
2006,06,24,00,17,12.80
2006,06,24,00,18,12.80
2006,06,24,00,19,12.80
2006,06,24,00,20,12.70
2006,06,24,00,21,12.70
2006,06,24,00,22,12.70
2006,06,24,00,23,12.70
2006,06,24,00,24,12.70
2006,06,24,00,25,12.70
2006,06,24,00,26,12.60
2006,06,24,00,27,12.60
2006,06,24,00,28,12.60
2006,06,24,00,29,12.60
2006,06,24,00,30,12.60
2006,06,24,00,31,12.60
2006,06,24,00,32,12.60
2006,06,24,00,33,12.50
2006,06,24,00,34,12.50
2006,06,24,00,35,12.50
2006,06,24,00,36,12.50
2006,06,24,00,37,12.50
2006,06,24,00,38,12.50
2006,06,24,00,39,12.50
2006,06,24,00,40,12.50
2006,06,24,00,41,12.50
2006,06,24,00,42,12.50
2006,06,24,00,43,12.50
2006,06,24,00,44,12.50
2006,06,24,00,45,12.50
2006,06,24,00,46,12.40
2006,06,24,00,47,12.40
2006,06,24,00,48,12.40
2006,06,24,00,49,12.30
2006,06,24,00,50,12.30
2006,06,24,00,51,12.30
2006,06,24,00,52,12.30
2006,06,24,00,53,12.30
2006,06,24,00,54,12.30
2006,06,24,00,55,12.30
2006,06,24,00,56,12.20
2006,06,24,00,57,12.20
2006,06,24,00,58,12.20
2006,06,24,00,59,12.20
2006,06,24,01,00,12.20
2006,06,24,01,01,12.20
2006,06,24,01,02,12.20
2006,06,24,01,03,12.20
2006,06,24,01,04,12.20
2006,06,24,01,05,12.20
2006,06,24,01,06,12.20
2006,06,24,01,07,12.20
2006,06,24,01,08,12.20
2006,06,24,01,09,12.20
2006,06,24,01,10,12.20
2006,06,24,01,11,12.20
2006,06,24,01,12,12.20
2006,06,24,01,13,12.20
2006,06,24,01,14,12.20
2006,06,24,01,15,12.20
2006,06,24,01,16,12.20
2006,06,24,01,17,12.10
2006,06,24,01,18,12.10
2006,06,24,01,19,12.00
2006,06,24,01,20,12.00
2006,06,24,01,21,11.90
2006,06,24,01,22,11.90
2006,06,24,01,23,11.80
2006,06,24,01,24,11.70
2006,06,24,01,25,11.60
2006,06,24,01,26,11.50
2006,06,24,01,27,11.40
2006,06,24,01,28,11.30
2006,06,24,01,29,11.20
2006,06,24,01,30,11.20
2006,06,24,01,31,11.10
2006,06,24,01,32,11.00
2006,06,24,01,33,10.90
2006,06,24,01,34,10.90
2006,06,24,01,35,10.80
2006,06,24,01,36,10.80
2006,06,24,01,37,10.70
2006,06,24,01,38,10.70
2006,06,24,01,39,10.70
2006,06,24,01,40,10.60
2006,06,24,01,41,10.60
2006,06,24,01,42,10.60
2006,06,24,01,43,10.60
2006,06,24,01,44,10.60
2006,06,24,01,45,10.60
2006,06,24,01,46,10.60
2006,06,24,01,47,10.60
2006,06,24,01,48,10.50
2006,06,24,01,49,10.40
2006,06,24,01,50,10.40
2006,06,24,01,51,10.40
2006,06,24,01,52,10.40
2006,06,24,01,53,10.40
2006,06,24,01,54,10.40
2006,06,24,01,55,10.40
2006,06,24,01,56,10.30
2006,06,24,01,57,10.30
2006,06,24,01,58,10.30
2006,06,24,01,59,10.30
2006,06,24,02,00,10.20
2006,06,24,02,01,10.20
2006,06,24,02,02,10.20
2006,06,24,02,03,10.20
2006,06,24,02,04,10.20
2006,06,24,02,05,10.20
2006,06,24,02,06,10.10
2006,06,24,02,07,10.10
2006,06,24,02,08,10.10
2006,06,24,02,09,10.00
2006,06,24,02,10,9.90
2006,06,24,02,11,9.90
2006,06,24,02,12,9.90
2006,06,24,02,13,9.90
2006,06,24,02,14,9.80
2006,06,24,02,15,9.80
2006,06,24,02,16,9.80
2006,06,24,02,17,9.80
2006,06,24,02,18,9.80
2006,06,24,02,19,9.80
2006,06,24,02,20,9.80
2006,06,24,02,21,9.80
2006,06,24,02,22,9.80
2006,06,24,02,23,9.90
2006,06,24,02,24,9.90
2006,06,24,02,25,9.90
2006,06,24,02,26,9.90
2006,06,24,02,27,9.90
2006,06,24,02,28,9.80
2006,06,24,02,29,9.80
2006,06,24,02,30,9.80
2006,06,24,02,31,9.70
2006,06,24,02,32,9.70
2006,06,24,02,33,9.70
2006,06,24,02,34,9.70
2006,06,24,02,35,9.70
2006,06,24,02,36,9.70
2006,06,24,02,37,9.70
2006,06,24,02,38,9.70
2006,06,24,02,39,9.70
2006,06,24,02,40,9.70
2006,06,24,02,41,9.70
2006,06,24,02,42,9.70
2006,06,24,02,43,9.70
2006,06,24,02,44,9.70
2006,06,24,02,45,9.60
2006,06,24,02,46,9.50
2006,06,24,02,47,9.50
2006,06,24,02,48,9.40
2006,06,24,02,49,9.40
2006,06,24,02,50,9.30
2006,06,24,02,51,9.30
2006,06,24,02,52,9.30
2006,06,24,02,53,9.30
2006,06,24,02,54,9.20
2006,06,24,02,55,9.20
2006,06,24,02,56,9.20
2006,06,24,02,57,9.30
2006,06,24,02,58,9.30
2006,06,24,02,59,9.30
2006,06,24,03,00,9.30
2006,06,24,03,01,9.30
2006,06,24,03,02,9.30
2006,06,24,03,03,9.30
2006,06,24,03,04,9.30
2006,06,24,03,05,9.30
2006,06,24,03,06,9.30
2006,06,24,03,07,9.20
2006,06,24,03,08,9.20
2006,06,24,03,09,9.20
2006,06,24,03,10,9.20
2006,06,24,03,11,9.20
2006,06,24,03,12,9.20
2006,06,24,03,13,9.20
2006,06,24,03,14,9.20
2006,06,24,03,15,9.20
2006,06,24,03,16,9.20
2006,06,24,03,17,9.20
2006,06,24,03,18,9.20
2006,06,24,03,19,9.20
2006,06,24,03,20,9.20
2006,06,24,03,21,9.20
2006,06,24,03,22,9.20
2006,06,24,03,23,9.20
2006,06,24,03,24,9.20
2006,06,24,03,25,9.20
2006,06,24,03,26,9.20
2006,06,24,03,27,9.20
2006,06,24,03,28,9.20
2006,06,24,03,29,9.20
2006,06,24,03,30,9.20
2006,06,24,03,31,9.20
2006,06,24,03,32,9.20
2006,06,24,03,33,9.20
2006,06,24,03,34,9.20
2006,06,24,03,35,9.30
2006,06,24,03,36,9.30
2006,06,24,03,37,9.30
2006,06,24,03,38,9.30
2006,06,24,03,39,9.30
2006,06,24,03,40,9.30
2006,06,24,03,41,9.30
2006,06,24,03,42,9.30
2006,06,24,03,43,9.30
2006,06,24,03,44,9.30
2006,06,24,03,45,9.30
2006,06,24,03,46,9.30
2006,06,24,03,47,9.30
2006,06,24,03,48,9.30
2006,06,24,03,49,9.30
2006,06,24,03,50,9.30
2006,06,24,03,51,9.30
2006,06,24,03,52,9.30
2006,06,24,03,53,9.30
2006,06,24,03,54,9.40
2006,06,24,03,55,9.40
2006,06,24,03,56,9.40
2006,06,24,03,57,9.40
2006,06,24,03,58,9.50
2006,06,24,03,59,9.50
2006,06,24,04,00,9.50
2006,06,24,04,01,9.50
2006,06,24,04,02,9.50
2006,06,24,04,03,9.50
2006,06,24,04,04,9.50
2006,06,24,04,05,9.50
2006,06,24,04,06,9.50
2006,06,24,04,07,9.60
2006,06,24,04,08,9.60
2006,06,24,04,09,9.60
2006,06,24,04,10,9.60
2006,06,24,04,11,9.60
2006,06,24,04,12,9.60
2006,06,24,04,13,9.70
2006,06,24,04,14,9.70
2006,06,24,04,15,9.70
2006,06,24,04,16,9.70
2006,06,24,04,17,9.70
2006,06,24,04,18,9.70
2006,06,24,04,19,9.60
2006,06,24,04,20,9.60
2006,06,24,04,21,9.60
2006,06,24,04,22,9.50
2006,06,24,04,23,9.50
2006,06,24,04,24,9.40
2006,06,24,04,25,9.40
2006,06,24,04,26,9.30
2006,06,24,04,27,9.30
2006,06,24,04,28,9.20
2006,06,24,04,29,9.20
2006,06,24,04,30,9.20
2006,06,24,04,31,9.30
2006,06,24,04,32,9.30
2006,06,24,04,33,9.20
2006,06,24,04,34,9.20
2006,06,24,04,35,9.20
2006,06,24,04,36,9.20
2006,06,24,04,37,9.20
2006,06,24,04,38,9.20
2006,06,24,04,39,9.20
2006,06,24,04,40,9.20
2006,06,24,04,41,9.20
2006,06,24,04,42,9.20
2006,06,24,04,43,9.30
2006,06,24,04,44,9.30
2006,06,24,04,45,9.30
2006,06,24,04,46,9.30
2006,06,24,04,47,9.30
2006,06,24,04,48,9.40
2006,06,24,04,49,9.40
2006,06,24,04,50,9.40
2006,06,24,04,51,9.50
2006,06,24,04,52,9.50
2006,06,24,04,53,9.60
2006,06,24,04,54,9.60
2006,06,24,04,55,9.70
2006,06,24,04,56,9.70
2006,06,24,04,57,9.70
2006,06,24,04,58,9.70
2006,06,24,04,59,9.70
2006,06,24,05,00,9.70
2006,06,24,05,01,9.70
2006,06,24,05,02,9.80
2006,06,24,05,03,9.80
2006,06,24,05,04,9.80
2006,06,24,05,05,9.90
2006,06,24,05,06,9.90
2006,06,24,05,07,9.90
2006,06,24,05,08,9.90
2006,06,24,05,09,10.00
2006,06,24,05,10,10.10
2006,06,24,05,11,10.10
2006,06,24,05,12,10.10
2006,06,24,05,13,10.20
2006,06,24,05,14,10.20
2006,06,24,05,15,10.20
2006,06,24,05,16,10.20
2006,06,24,05,17,10.30
2006,06,24,05,18,10.30
2006,06,24,05,19,10.30
2006,06,24,05,20,10.30
2006,06,24,05,21,10.30
2006,06,24,05,22,10.30
2006,06,24,05,23,10.20
2006,06,24,05,24,10.20
2006,06,24,05,25,10.20
2006,06,24,05,26,10.20
2006,06,24,05,27,10.20
2006,06,24,05,28,10.20
2006,06,24,05,29,10.10
2006,06,24,05,30,10.10
2006,06,24,05,31,10.10
2006,06,24,05,32,10.10
2006,06,24,05,33,10.10
2006,06,24,05,34,10.10
2006,06,24,05,35,10.10
2006,06,24,05,36,10.10
2006,06,24,05,37,10.10
2006,06,24,05,38,10.10
2006,06,24,05,39,10.10
2006,06,24,05,40,10.20
2006,06,24,05,41,10.20
2006,06,24,05,42,10.30
2006,06,24,05,43,10.30
2006,06,24,05,44,10.30
2006,06,24,05,45,10.40
2006,06,24,05,46,10.40
2006,06,24,05,47,10.40
2006,06,24,05,48,10.50
2006,06,24,05,49,10.60
2006,06,24,05,50,10.60
2006,06,24,05,51,10.60
2006,06,24,05,52,10.60
2006,06,24,05,53,10.70
2006,06,24,05,54,10.70
2006,06,24,05,55,10.70
2006,06,24,05,56,10.80
2006,06,24,05,57,10.80
2006,06,24,05,58,10.80
2006,06,24,05,59,10.90
2006,06,24,06,00,10.90
2006,06,24,06,01,10.90
2006,06,24,06,02,10.90
2006,06,24,06,03,10.90
2006,06,24,06,04,10.90
2006,06,24,06,05,11.10
2006,06,24,06,06,11.10
2006,06,24,06,07,11.10
2006,06,24,06,08,11.10
2006,06,24,06,09,11.10
2006,06,24,06,10,11.10
2006,06,24,06,11,11.20
2006,06,24,06,12,11.20
2006,06,24,06,13,11.30
2006,06,24,06,14,11.30
2006,06,24,06,15,11.30
2006,06,24,06,16,11.40
2006,06,24,06,17,11.40
2006,06,24,06,18,11.40
2006,06,24,06,19,11.40
2006,06,24,06,20,11.40
2006,06,24,06,21,11.40
2006,06,24,06,22,11.40
2006,06,24,06,23,11.40
2006,06,24,06,24,11.40
2006,06,24,06,25,11.60
2006,06,24,06,26,11.60
2006,06,24,06,27,11.60
2006,06,24,06,28,11.60
2006,06,24,06,29,11.70
2006,06,24,06,30,11.80
2006,06,24,06,31,11.80
2006,06,24,06,32,11.90
2006,06,24,06,33,12.00
2006,06,24,06,34,12.10
2006,06,24,06,35,12.10
2006,06,24,06,36,12.20
2006,06,24,06,37,12.30
2006,06,24,06,38,12.40
2006,06,24,06,39,12.40
2006,06,24,06,40,12.50
2006,06,24,06,41,12.60
2006,06,24,06,42,12.60
2006,06,24,06,43,12.70
2006,06,24,06,44,12.80
2006,06,24,06,45,12.90
2006,06,24,06,46,13.00
2006,06,24,06,47,13.10
2006,06,24,06,48,13.20
2006,06,24,06,49,13.40
2006,06,24,06,50,13.50
2006,06,24,06,51,13.60
2006,06,24,06,52,13.80
2006,06,24,06,53,13.90
2006,06,24,06,54,14.10
2006,06,24,06,55,14.20
2006,06,24,06,56,14.40
2006,06,24,06,57,14.50
2006,06,24,06,58,14.60
2006,06,24,06,59,14.70
2006,06,24,07,00,14.80
2006,06,24,07,01,14.90
2006,06,24,07,02,14.90
2006,06,24,07,03,15.00
2006,06,24,07,04,15.10
2006,06,24,07,05,15.20
2006,06,24,07,06,15.20
2006,06,24,07,07,15.30
2006,06,24,07,08,15.30
2006,06,24,07,09,15.30
2006,06,24,07,10,15.40
2006,06,24,07,11,15.40
2006,06,24,07,12,15.40
2006,06,24,07,13,15.50
2006,06,24,07,14,15.50
2006,06,24,07,15,15.50
2006,06,24,07,16,15.40
2006,06,24,07,17,15.40
2006,06,24,07,18,15.40
2006,06,24,07,19,15.40
2006,06,24,07,20,15.40
2006,06,24,07,21,15.40
2006,06,24,07,22,15.40
2006,06,24,07,23,15.40
2006,06,24,07,24,15.40
2006,06,24,07,25,15.40
2006,06,24,07,26,15.40
2006,06,24,07,27,15.40
2006,06,24,07,28,15.30
2006,06,24,07,29,15.40
2006,06,24,07,30,15.40
2006,06,24,07,31,15.40
2006,06,24,07,32,15.40
2006,06,24,07,33,15.40
2006,06,24,07,34,15.50
2006,06,24,07,35,15.50
2006,06,24,07,36,15.60
2006,06,24,07,37,15.60
2006,06,24,07,38,15.70
2006,06,24,07,39,15.70
2006,06,24,07,40,15.80
2006,06,24,07,41,15.80
2006,06,24,07,42,15.80
2006,06,24,07,43,15.80
2006,06,24,07,44,15.80
2006,06,24,07,45,15.80
2006,06,24,07,46,15.90
2006,06,24,07,47,15.90
2006,06,24,07,48,16.00
2006,06,24,07,49,16.10
2006,06,24,07,50,16.10
2006,06,24,07,51,16.10
2006,06,24,07,52,16.20
2006,06,24,07,53,16.20
2006,06,24,07,54,16.20
2006,06,24,07,55,16.30
2006,06,24,07,56,16.30
2006,06,24,07,57,16.40
2006,06,24,07,58,16.40
2006,06,24,07,59,16.40
2006,06,24,08,00,16.40
2006,06,24,08,01,16.50
2006,06,24,08,02,16.60
2006,06,24,08,03,16.60
2006,06,24,08,04,16.70
2006,06,24,08,05,16.80
2006,06,24,08,06,16.90
2006,06,24,08,07,16.90
2006,06,24,08,08,17.00
2006,06,24,08,09,17.10
2006,06,24,08,10,17.10
2006,06,24,08,11,17.20
2006,06,24,08,12,17.30
2006,06,24,08,13,17.30
2006,06,24,08,14,17.30
2006,06,24,08,15,17.30
2006,06,24,08,16,17.30
2006,06,24,08,17,17.40
2006,06,24,08,18,17.40
2006,06,24,08,19,17.50
2006,06,24,08,20,17.50
2006,06,24,08,21,17.60
2006,06,24,08,22,17.60
2006,06,24,08,23,17.70
2006,06,24,08,24,17.70
2006,06,24,08,25,17.70
2006,06,24,08,26,17.70
2006,06,24,08,27,17.80
2006,06,24,08,28,17.80
2006,06,24,08,29,17.90
2006,06,24,08,30,17.90
2006,06,24,08,31,17.90
2006,06,24,08,32,18.00
2006,06,24,08,33,18.10
2006,06,24,08,34,18.10
2006,06,24,08,35,18.20
2006,06,24,08,36,18.20
2006,06,24,08,37,18.20
2006,06,24,08,38,18.20
2006,06,24,08,39,18.30
2006,06,24,08,40,18.30
2006,06,24,08,41,18.30
2006,06,24,08,42,18.30
2006,06,24,08,43,18.20
2006,06,24,08,44,18.20
2006,06,24,08,45,18.20
2006,06,24,08,46,18.30
2006,06,24,08,47,18.30
2006,06,24,08,48,18.30
2006,06,24,08,49,18.30
2006,06,24,08,50,18.20
2006,06,24,08,51,18.20
2006,06,24,08,52,18.20
2006,06,24,08,53,18.20
2006,06,24,08,54,18.10
2006,06,24,08,55,18.10
2006,06,24,08,56,18.20
2006,06,24,08,57,18.20
2006,06,24,08,58,18.30
2006,06,24,08,59,18.30
2006,06,24,09,00,18.40
2006,06,24,09,01,18.40
2006,06,24,09,02,18.50
2006,06,24,09,03,18.50
2006,06,24,09,04,18.60
2006,06,24,09,05,18.70
2006,06,24,09,06,18.70
2006,06,24,09,07,18.70
2006,06,24,09,08,18.70
2006,06,24,09,09,18.70
2006,06,24,09,10,18.80
2006,06,24,09,11,18.90
2006,06,24,09,12,18.80
2006,06,24,09,13,18.80
2006,06,24,09,14,18.80
2006,06,24,09,15,18.80
2006,06,24,09,16,18.80
2006,06,24,09,17,18.70
2006,06,24,09,18,18.70
2006,06,24,09,19,18.80
2006,06,24,09,20,18.80
2006,06,24,09,21,18.90
2006,06,24,09,22,18.90
2006,06,24,09,23,18.90
2006,06,24,09,24,18.90
2006,06,24,09,25,18.90
2006,06,24,09,26,18.80
2006,06,24,09,27,18.80
2006,06,24,09,28,18.80
2006,06,24,09,29,18.70
2006,06,24,09,30,18.70
2006,06,24,09,31,18.70
2006,06,24,09,32,18.80
2006,06,24,09,33,18.80
2006,06,24,09,34,18.90
2006,06,24,09,35,18.90
2006,06,24,09,36,18.90
2006,06,24,09,37,19.00
2006,06,24,09,38,19.00
2006,06,24,09,39,18.90
2006,06,24,09,40,18.90
2006,06,24,09,41,18.90
2006,06,24,09,42,18.80
2006,06,24,09,43,18.80
2006,06,24,09,44,18.90
2006,06,24,09,45,18.90
2006,06,24,09,46,18.90
2006,06,24,09,47,18.90
2006,06,24,09,48,18.90
2006,06,24,09,49,18.90
2006,06,24,09,50,18.90
2006,06,24,09,51,18.90
2006,06,24,09,52,18.90
2006,06,24,09,53,18.90
2006,06,24,09,54,18.90
2006,06,24,09,55,18.90
2006,06,24,09,56,18.90
2006,06,24,09,57,18.90
2006,06,24,09,58,18.90
2006,06,24,09,59,18.90
2006,06,24,10,00,19.00
2006,06,24,10,01,19.10
2006,06,24,10,02,19.10
2006,06,24,10,03,19.10
2006,06,24,10,04,19.10
2006,06,24,10,05,19.20
2006,06,24,10,06,19.20
2006,06,24,10,07,19.30
2006,06,24,10,08,19.30
2006,06,24,10,09,19.30
2006,06,24,10,10,19.30
2006,06,24,10,11,19.30
2006,06,24,10,12,19.40
2006,06,24,10,13,19.30
2006,06,24,10,14,19.40
2006,06,24,10,15,19.40
2006,06,24,10,16,19.30
2006,06,24,10,17,19.30
2006,06,24,10,18,19.30
2006,06,24,10,19,19.40
2006,06,24,10,20,19.50
2006,06,24,10,21,19.50
2006,06,24,10,22,19.50
2006,06,24,10,23,19.60
2006,06,24,10,24,19.60
2006,06,24,10,25,19.60
2006,06,24,10,26,19.70
2006,06,24,10,27,19.80
2006,06,24,10,28,19.80
2006,06,24,10,29,19.70
2006,06,24,10,30,19.70
2006,06,24,10,31,19.70
2006,06,24,10,32,19.80
2006,06,24,10,33,19.80
2006,06,24,10,34,19.80
2006,06,24,10,35,19.70
2006,06,24,10,36,19.70
2006,06,24,10,37,19.70
2006,06,24,10,38,19.70
2006,06,24,10,39,19.80
2006,06,24,10,40,19.90
2006,06,24,10,41,19.90
2006,06,24,10,42,19.90
2006,06,24,10,43,20.00
2006,06,24,10,44,20.10
2006,06,24,10,45,20.10
2006,06,24,10,46,20.10
2006,06,24,10,47,20.20
2006,06,24,10,48,20.20
2006,06,24,10,49,20.20
2006,06,24,10,50,20.20
2006,06,24,10,51,20.20
2006,06,24,10,52,20.20
2006,06,24,10,53,20.20
2006,06,24,10,54,20.20
2006,06,24,10,55,20.20
2006,06,24,10,56,20.20
2006,06,24,10,57,20.20
2006,06,24,10,58,20.30
2006,06,24,10,59,20.30
2006,06,24,11,00,20.40
2006,06,24,11,01,20.40
2006,06,24,11,02,20.40
2006,06,24,11,03,20.50
2006,06,24,11,04,20.50
2006,06,24,11,05,20.50
2006,06,24,11,06,20.50
2006,06,24,11,07,20.50
2006,06,24,11,08,20.50
2006,06,24,11,09,20.50
2006,06,24,11,10,20.50
2006,06,24,11,11,20.60
2006,06,24,11,12,20.60
2006,06,24,11,13,20.60
2006,06,24,11,14,20.60
2006,06,24,11,15,20.60
2006,06,24,11,16,20.60
2006,06,24,11,17,20.60
2006,06,24,11,18,20.60
2006,06,24,11,19,20.60
2006,06,24,11,20,20.50
2006,06,24,11,21,20.60
2006,06,24,11,22,20.70
2006,06,24,11,23,20.80
2006,06,24,11,24,20.90
2006,06,24,11,25,20.90
2006,06,24,11,26,20.90
2006,06,24,11,27,20.90
2006,06,24,11,28,20.90
2006,06,24,11,29,20.80
2006,06,24,11,30,20.70
2006,06,24,11,31,20.60
2006,06,24,11,32,20.50
2006,06,24,11,33,20.40
2006,06,24,11,34,20.30
2006,06,24,11,35,20.20
2006,06,24,11,36,20.20
2006,06,24,11,37,20.10
2006,06,24,11,38,20.10
2006,06,24,11,39,20.10
2006,06,24,11,40,20.20
2006,06,24,11,41,20.20
2006,06,24,11,42,20.20
2006,06,24,11,43,20.20
2006,06,24,11,44,20.30
2006,06,24,11,45,20.30
2006,06,24,11,46,20.30
2006,06,24,11,47,20.20
2006,06,24,11,48,20.20
2006,06,24,11,49,20.20
2006,06,24,11,50,20.10
2006,06,24,11,51,20.20
2006,06,24,11,52,20.20
2006,06,24,11,53,20.30
2006,06,24,11,54,20.40
2006,06,24,11,55,20.50
2006,06,24,11,56,20.60
2006,06,24,11,57,20.60
2006,06,24,11,58,20.70
2006,06,24,11,59,20.60
2006,06,24,12,00,20.60
2006,06,24,12,01,20.60
2006,06,24,12,02,20.50
2006,06,24,12,03,20.40
2006,06,24,12,04,20.40
2006,06,24,12,05,20.50
2006,06,24,12,06,20.60
2006,06,24,12,07,20.70
2006,06,24,12,08,20.80
2006,06,24,12,09,20.90
2006,06,24,12,10,20.90
2006,06,24,12,11,20.90
2006,06,24,12,12,20.90
2006,06,24,12,13,20.90
2006,06,24,12,14,20.80
2006,06,24,12,15,20.70
2006,06,24,12,16,20.60
2006,06,24,12,17,20.60
2006,06,24,12,18,20.50
2006,06,24,12,19,20.60
2006,06,24,12,20,20.70
2006,06,24,12,21,20.80
2006,06,24,12,22,20.90
2006,06,24,12,23,20.90
2006,06,24,12,24,20.90
2006,06,24,12,25,20.90
2006,06,24,12,26,20.90
2006,06,24,12,27,20.90
2006,06,24,12,28,20.90
2006,06,24,12,29,20.90
2006,06,24,12,30,20.80
2006,06,24,12,31,20.80
2006,06,24,12,32,20.70
2006,06,24,12,33,20.70
2006,06,24,12,34,20.60
2006,06,24,12,35,20.70
2006,06,24,12,36,20.70
2006,06,24,12,37,20.80
2006,06,24,12,38,20.90
2006,06,24,12,39,21.00
2006,06,24,12,40,21.10
2006,06,24,12,41,21.10
2006,06,24,12,42,21.10
2006,06,24,12,43,21.10
2006,06,24,12,44,21.10
2006,06,24,12,45,21.10
2006,06,24,12,46,21.10
2006,06,24,12,47,21.20
2006,06,24,12,48,21.20
2006,06,24,12,49,21.20
2006,06,24,12,50,21.20
2006,06,24,12,51,21.20
2006,06,24,12,52,21.10
2006,06,24,12,53,21.10
2006,06,24,12,54,21.10
2006,06,24,12,55,21.10
2006,06,24,12,56,21.20
2006,06,24,12,57,21.20
2006,06,24,12,58,21.20
2006,06,24,12,59,21.20
2006,06,24,13,00,21.20
2006,06,24,13,01,21.30
2006,06,24,13,02,21.30
2006,06,24,13,03,21.30
2006,06,24,13,04,21.30
2006,06,24,13,05,21.20
2006,06,24,13,06,21.20
2006,06,24,13,07,21.20
2006,06,24,13,08,21.20
2006,06,24,13,09,21.20
2006,06,24,13,10,21.30
2006,06,24,13,11,21.40
2006,06,24,13,12,21.50
2006,06,24,13,13,21.70
2006,06,24,13,14,21.80
2006,06,24,13,15,21.90
2006,06,24,13,16,22.00
2006,06,24,13,17,22.10
2006,06,24,13,18,22.10
2006,06,24,13,19,22.10
2006,06,24,13,20,22.10
2006,06,24,13,21,21.90
2006,06,24,13,22,21.80
2006,06,24,13,23,21.60
2006,06,24,13,24,21.60
2006,06,24,13,25,21.70
2006,06,24,13,26,21.70
2006,06,24,13,27,21.60
2006,06,24,13,28,21.60
2006,06,24,13,29,21.50
2006,06,24,13,30,21.40
2006,06,24,13,31,21.40
2006,06,24,13,32,21.30
2006,06,24,13,33,21.20
2006,06,24,13,34,21.10
2006,06,24,13,35,21.10
2006,06,24,13,36,21.20
2006,06,24,13,37,21.30
2006,06,24,13,38,21.30
2006,06,24,13,39,21.30
2006,06,24,13,40,21.30
2006,06,24,13,41,21.30
2006,06,24,13,42,21.30
2006,06,24,13,43,21.30
2006,06,24,13,44,21.30
2006,06,24,13,45,21.40
2006,06,24,13,46,21.60
2006,06,24,13,47,21.70
2006,06,24,13,48,21.80
2006,06,24,13,49,21.90
2006,06,24,13,50,22.00
2006,06,24,13,51,22.20
2006,06,24,13,52,22.30
2006,06,24,13,53,22.40
2006,06,24,13,54,22.50
2006,06,24,13,55,22.60
2006,06,24,13,56,22.70
2006,06,24,13,57,22.70
2006,06,24,13,58,22.80
2006,06,24,13,59,22.70
2006,06,24,14,00,22.60
2006,06,24,14,01,22.50
2006,06,24,14,02,22.30
2006,06,24,14,03,22.20
2006,06,24,14,04,22.10
2006,06,24,14,05,22.10
2006,06,24,14,06,22.20
2006,06,24,14,07,22.20
2006,06,24,14,08,22.20
2006,06,24,14,09,22.20
2006,06,24,14,10,22.20
2006,06,24,14,11,22.20
2006,06,24,14,12,22.30
2006,06,24,14,13,22.40
2006,06,24,14,14,22.40
2006,06,24,14,15,22.40
2006,06,24,14,16,22.40
2006,06,24,14,17,22.30
2006,06,24,14,18,22.20
2006,06,24,14,19,22.20
2006,06,24,14,20,22.10
2006,06,24,14,21,22.00
2006,06,24,14,22,21.90
2006,06,24,14,23,21.80
2006,06,24,14,24,21.90
2006,06,24,14,25,22.00
2006,06,24,14,26,22.10
2006,06,24,14,27,22.10
2006,06,24,14,28,22.20
2006,06,24,14,29,22.30
2006,06,24,14,30,22.30
2006,06,24,14,31,22.30
2006,06,24,14,32,22.30
2006,06,24,14,33,22.20
2006,06,24,14,34,22.20
2006,06,24,14,35,22.20
2006,06,24,14,36,22.30
2006,06,24,14,37,22.30
2006,06,24,14,38,22.40
2006,06,24,14,39,22.50
2006,06,24,14,40,22.60
2006,06,24,14,41,22.60
2006,06,24,14,42,22.70
2006,06,24,14,43,22.80
2006,06,24,14,44,22.70
2006,06,24,14,45,22.60
2006,06,24,14,46,22.50
2006,06,24,14,47,22.40
2006,06,24,14,48,22.30
2006,06,24,14,49,22.20
2006,06,24,14,50,22.30
2006,06,24,14,51,22.30
2006,06,24,14,52,22.30
2006,06,24,14,53,22.40
2006,06,24,14,54,22.50
2006,06,24,14,55,22.50
2006,06,24,14,56,22.60
2006,06,24,14,57,22.80
2006,06,24,14,58,22.90
2006,06,24,14,59,23.00
2006,06,24,15,00,23.10
2006,06,24,15,01,23.10
2006,06,24,15,02,23.20
2006,06,24,15,03,23.20
2006,06,24,15,04,23.20
2006,06,24,15,05,23.10
2006,06,24,15,06,23.00
2006,06,24,15,07,22.90
2006,06,24,15,08,22.90
2006,06,24,15,09,23.00
2006,06,24,15,10,23.10
2006,06,24,15,11,23.10
2006,06,24,15,12,23.10
2006,06,24,15,13,23.10
2006,06,24,15,14,23.10
2006,06,24,15,15,23.10
2006,06,24,15,16,23.10
2006,06,24,15,17,23.20
2006,06,24,15,18,23.20
2006,06,24,15,19,23.30
2006,06,24,15,20,23.30
2006,06,24,15,21,23.30
2006,06,24,15,22,23.40
2006,06,24,15,23,23.50
2006,06,24,15,24,23.70
2006,06,24,15,25,23.80
2006,06,24,15,26,23.90
2006,06,24,15,27,23.90
2006,06,24,15,28,23.90
2006,06,24,15,29,24.10
2006,06,24,15,30,24.10
2006,06,24,15,31,24.10
2006,06,24,15,32,24.10
2006,06,24,15,33,24.10
2006,06,24,15,34,24.10
2006,06,24,15,35,24.10
2006,06,24,15,36,24.10
2006,06,24,15,37,24.10
2006,06,24,15,38,24.10
2006,06,24,15,39,24.10
2006,06,24,15,40,24.20
2006,06,24,15,41,24.30
2006,06,24,15,42,24.30
2006,06,24,15,43,24.40
2006,06,24,15,44,24.40
2006,06,24,15,45,24.40
2006,06,24,15,46,24.40
2006,06,24,15,47,24.30
2006,06,24,15,48,24.10
2006,06,24,15,49,24.00
2006,06,24,15,50,23.90
2006,06,24,15,51,23.80
2006,06,24,15,52,23.70
2006,06,24,15,53,23.70
2006,06,24,15,54,23.70
2006,06,24,15,55,23.70
2006,06,24,15,56,23.70
2006,06,24,15,57,23.70
2006,06,24,15,58,23.70
2006,06,24,15,59,23.70
2006,06,24,16,00,23.70
2006,06,24,16,01,23.60
2006,06,24,16,02,23.50
2006,06,24,16,03,23.50
2006,06,24,16,04,23.60
2006,06,24,16,05,23.60
2006,06,24,16,06,23.70
2006,06,24,16,07,23.70
2006,06,24,16,08,23.70
2006,06,24,16,09,23.70
2006,06,24,16,10,23.80
2006,06,24,16,11,23.90
2006,06,24,16,12,24.00
2006,06,24,16,13,24.00
2006,06,24,16,14,23.90
2006,06,24,16,15,23.90
2006,06,24,16,16,23.90
2006,06,24,16,17,23.90
2006,06,24,16,18,23.80
2006,06,24,16,19,23.80
2006,06,24,16,20,23.80
2006,06,24,16,21,23.80
2006,06,24,16,22,23.90
2006,06,24,16,23,23.90
2006,06,24,16,24,23.90
2006,06,24,16,25,23.90
2006,06,24,16,26,24.00
2006,06,24,16,27,24.10
2006,06,24,16,28,24.10
2006,06,24,16,29,24.10
2006,06,24,16,30,24.10
2006,06,24,16,31,24.20
2006,06,24,16,32,24.40
2006,06,24,16,33,24.50
2006,06,24,16,34,24.50
2006,06,24,16,35,24.50
2006,06,24,16,36,24.50
2006,06,24,16,37,24.50
2006,06,24,16,38,24.50
2006,06,24,16,39,24.40
2006,06,24,16,40,24.30
2006,06,24,16,41,24.30
2006,06,24,16,42,24.40
2006,06,24,16,43,24.50
2006,06,24,16,44,24.60
2006,06,24,16,45,24.70
2006,06,24,16,46,24.80
2006,06,24,16,47,24.90
2006,06,24,16,48,25.00
2006,06,24,16,49,25.10
2006,06,24,16,50,25.20
2006,06,24,16,51,25.30
2006,06,24,16,52,25.30
2006,06,24,16,53,25.20
2006,06,24,16,54,25.20
2006,06,24,16,55,25.20
2006,06,24,16,56,25.20
2006,06,24,16,57,25.30
2006,06,24,16,58,25.30
2006,06,24,16,59,25.40
2006,06,24,17,00,25.40
2006,06,24,17,01,25.40
2006,06,24,17,02,25.50
2006,06,24,17,03,25.50
2006,06,24,17,04,25.50
2006,06,24,17,05,25.60
2006,06,24,17,06,25.60
2006,06,24,17,07,25.70
2006,06,24,17,08,25.70
2006,06,24,17,09,25.80
2006,06,24,17,10,25.80
2006,06,24,17,11,25.80
2006,06,24,17,12,25.80
2006,06,24,17,13,25.80
2006,06,24,17,14,25.70
2006,06,24,17,15,25.70
2006,06,24,17,16,25.80
2006,06,24,17,17,25.70
2006,06,24,17,18,25.70
2006,06,24,17,19,25.70
2006,06,24,17,20,25.60
2006,06,24,17,21,25.60
2006,06,24,17,22,25.60
2006,06,24,17,23,25.60
2006,06,24,17,24,25.50
2006,06,24,17,25,25.60
2006,06,24,17,26,25.70
2006,06,24,17,27,25.80